Flag for Germany Weather past 2 weeks in Lemgo, North Rhine-Westphalia, Germany

Now
35 °F

Overcast.


Feels Like: 30 °F
Forecast: 31 / 36 °F
Wind: 5 mph from Southwest

Location: Bad Lippspringe

Current Time: Feb 1, 2015 at 1:00:05 PM

Latest Report: Feb 1, 2015 at 12:00 PM


Visibility: 11 mi

Pressure: 29.23 "Hg

Humidity: 77%

Dew point: 28 °F

Location of LemgoLocation

Historic Weather in Lemgo — Graph

°F

Lemgo temperature yesterday

Maximum temperature yesterday: 36 °F (at 3:00 PM)
Minimum temperature yesterday: 28 °F (at 12:00 AM)
Average temperature yesterday: 33 °F

Past Weeks' High & Low Weather Summary

 TemperatureHumidityPressure
High42 °F (Jan 28, 2:00 PM)100% (Jan 24, 7:00 PM)30.39 "Hg (Jan 24, 7:00 PM)
Low25 °F (Jan 24, 4:00 AM)66% (Jan 17, 4:00 PM)28.67 "Hg (Jan 30, 3:00 AM)
Average33 °F87%29.80 "Hg
* Reported Jan 17 12:00 Noon — Feb 1 12:00 Noon, Lemgo, Weather by CustomWeather, © 2014

Note: Actual official high and low records may vary slightly from our data, if they occured in-between our weather recording intervals... More about our weather records

Advertising

Lemgo weather history for previous 24 hours

 ConditionsComfort  
Time TempWeatherWind HumidityBarometerVisibility
12:00 PM
Feb 1
35 °FOvercast.5 mph77%29.23 "Hg11 mi
11:00 AM33 °FOvercast.1 mph80%29.21 "Hg11 mi
10:00 AM32 °FOvercast.3 mph80%29.21 "Hg11 mi
9:00 AM30 °FOvercast.1 mph85%29.21 "Hg9 mi
8:00 AM31 °FOvercast.1 mph84%29.18 "Hg9 mi
7:00 AM32 °FOvercast.2 mph85%29.15 "Hg25 mi
6:00 AM32 °FOvercast.1 mph86%29.15 "HgN/A
5:00 AM32 °FOvercast.1 mph86%29.15 "Hg19 mi
4:00 AM32 °FOvercast.2 mph87%29.12 "Hg17 mi
3:00 AM33 °FOvercast.2 mph87%29.15 "Hg19 mi
2:00 AM33 °FOvercast.2 mph86%29.12 "Hg31 mi
1:00 AM32 °FOvercast.2 mph88%29.12 "Hg31 mi
12:00 AM31 °FOvercast.1 mph88%29.12 "Hg43 mi
11:00 PM
Jan 31
32 °FOvercast.2 mph87%29.12 "Hg25 mi
10:00 PM33 °FOvercast.2 mph89%29.12 "HgN/A
9:00 PM33 °FOvercast.2 mph91%29.09 "Hg19 mi
8:00 PM33 °FOvercast.2 mph91%29.09 "HgN/A
7:00 PM33 °FOvercast.2 mph90%29.06 "Hg22 mi
6:00 PM35 °FPassing clouds.2 mph87%29.06 "Hg43 mi
5:00 PM36 °FOvercast.2 mph85%29.03 "Hg9 mi
4:00 PM36 °FOvercast.3 mph87%29.00 "Hg7 mi
3:00 PM36 °FOvercast.3 mph87%29.00 "Hg6 mi
2:00 PM35 °FFog.2 mph90%29.00 "Hg4 mi
1:00 PM35 °FLow clouds.3 mph92%29.00 "Hg3 mi
Weather by CustomWeather, © 2014

See weather overviewHow to use our weather pages